[ ตารางข้อมูล ] [ Min-Max ] [ วันนี้2 ] [ วันนี้4 ] [ เทียบ-A 3วัน ] [ เทียบ-B 4วัน ]   

วันนี้4   [ ◀ ช่วงเก่ากว่า ] [ ช่วงที่ 28 ] [ ช่วงใหม่กว่า ▶ ] [ ล่าสุด ]    [ 3 ชั่วโมง ] [ 6 ชั่วโมง ] [ 12 ชั่วโมง ] [ 24 ชั่วโมง ]   วันนี้4

อุณภูมิในตู้ Knockdown4529  ราย 24 ชั่วโมง  ที่วัดได้ ในช่วงวันเวลา 05/08/2026 (03:55) ถึง 06/08/2026 (03:55) 
ความชื้นในตู้ Knockdown4529  ราย 24 ชั่วโมง  ที่วัดได้ ในช่วงวันเวลา 05/08/2026 (03:55) ถึง 06/08/2026 (03:55) 
การใช้ไฟฟ้าในตู้ Knockdown4529  ราย 24 ชั่วโมง  ที่วัดได้ ในช่วงวันเวลา 05/08/2026 (03:55) ถึง 06/08/2026 (03:55) 

  DS18B20SHTC3PZEM-004TWiFi 
IDDate d/m/Y & Timedata1
สูง
data2
ต่ำ
data3
นอก
temp
pcb
hum
pcb
VoltAmpWattrssiTime
 9976  06/08/2026 03:53:02  29.6  29.8  26.9  30.6  68.9  229.9  0.04  4.4  -77  03:53 
 9975  06/08/2026 03:48:19  29.6  29.8  26.6  30.6  68.8  229.9  0.04  4.4  -78  03:48 
 9974  06/08/2026 03:43:36  29.6  29.8  26.4  30.5  68.6  231.5  0.04  4.4  -77  03:43 
 9973  06/08/2026 03:38:52  29.6  29.8  26.4  30.6  68.8  229.6  0.04  4.4  -76  03:38 
 9972  06/08/2026 03:34:09  29.6  29.8  26.5  30.6  68.8  231.2  0.04  4.4  -73  03:34 
 9971  06/08/2026 03:29:26  29.7  29.9  26.4  30.6  68.7  229.6  0.04  4.4  -74  03:29 
 9970  06/08/2026 03:24:43  29.7  29.9  26.5  30.7  68.7  230.9  0.04  4.4  -76  03:24 
 9969  06/08/2026 03:19:59  29.8  29.9  26.5  30.8  68.7  229.8  0.04  4.4  -76  03:19 
 9968  06/08/2026 03:15:16  29.8  29.9  26.5  30.8  68.8  231.2  0.04  4.4  -75  03:15 
 9967  06/08/2026 03:10:33  29.8  29.9  26.6  30.9  68.7  229.8  0.04  4.4  -77  03:10 
 9966  06/08/2026 03:05:49  29.8  29.9  26.9  30.8  68.7  230.6  0.04  4.4  -75  03:05 
 9965  06/08/2026 03:01:06  29.8  30.0  27.0  30.8  68.6  229.2  0.04  4.4  -76  03:01 
 9964  06/08/2026 02:56:23  29.8  30.0  27.2  30.8  68.7  229.8  0.04  4.4  -76  02:56 
 9963  06/08/2026 02:51:37  29.9  30.1  26.9  31.0  68.7  229.2  0.04  4.4  -76  02:51 
 9962  06/08/2026 02:46:54  29.9  30.1  26.9  30.8  68.5  229.0  0.04  4.4  -74  02:46 
 9961  06/08/2026 02:42:10  29.9  30.1  27.0  30.7  68.5  229.6  0.04  4.4  -75  02:42 
 9960  06/08/2026 02:37:27  29.9  30.1  27.2  31.0  68.5  229.1  0.04  4.4  -77  02:37 
 9959  06/08/2026 02:32:44  29.9  30.1  27.4  31.0  68.7  229.0  0.04  4.4  -74  02:32 
 9958  06/08/2026 02:28:00  30.0  30.1  27.5  31.0  68.5  229.6  0.04  4.4  -74  02:28 
 9957  06/08/2026 02:23:17  30.0  30.2  27.4  31.0  68.7  229.0  0.04  4.4  -75  02:23 
 9956  06/08/2026 02:18:34  30.0  30.2  27.5  31.0  68.5  230.4  0.04  4.4  -73  02:18 
 9955  06/08/2026 02:13:50  30.1  30.2  27.6  31.1  68.6  229.3  0.04  4.4  -76  02:13 
 9954  06/08/2026 02:09:07  30.1  30.2  27.6  30.8  68.5  229.2  0.04  4.4  -77  02:09 
 9953  06/08/2026 02:04:24  30.1  30.2  27.5  31.0  68.5  229.3  0.04  4.4  -74  02:04 

Data every 5 minute.


ใช้เวลาประมวลผล 0.04493 วินาที